Location: Byszew
(52.1813°N, 19.2693°E)
Time: 06:03:03
(UTC+00:00)

SPROUT - Pass Details

Date: 02 July 2022
Orbit: 588 x 598 km, 97.9° (Epoch: 18 August)

Event Time Altitude Azimuth Distance (km) Brightness Sun altitude
Exits shadow 00:28:48 14° 230° (SW) 1,660 ? -11.5°
Maximum altitude 00:31:00 21° 268° (W) 1,365 ? -11.4°
Drops below altitude 10° 00:34:09 10° 318° (NW) 1,928 ? -11.2°
Sets 00:36:48 0° 335° (NNW) 2,837 ? -11.0°
